sat.trackr.live / text

‹ back to catalog

STARLINK-5522

NORAD 56498 · 2023-064BC

PAYLOAD ACTIVE UNKNOWN

§ Identity

Operator
Country
US
Launch date
2023-05-10
Launch site
AFWTR
Launch vehicle
Mass (kg)
RCS (m²)

Purposes: comms

External: N2YO · Heavens-Above · Gunter

§ Orbital elements

Epoch: 2026-05-25T01:29:34.785888Z

Period
96.11 min
Inclination
69.9992°
Eccentricity
0.0003024
Mean motion
14.98331453 rev/d
Perigee alt
569.9 km
Apogee alt
574.2 km
Semi-major
6,950.2 km
B*
5.5670e-6
RAAN
271.8377°
Arg perigee
272.0315°
Mean anomaly
88.0498°
Rev number
16,767

§ Raw data

STARLINK-55221 56498U 23064BC  26145.06220817 -.00000027  00000+0  55670-5 0  99982 56498  69.9992 271.8377 0003024 272.0315  88.0498 14.98331453167677

JSON: /api/v1/satellites/56498 · /tle

For live sub-satellite position, see the globe view (requires WebGL).

§ Visibility from observer

Set your observer location to see the next 7 days of passes ≥ 10°. The values pass through the URL so the page stays shareable.

No JS? Fill the form by hand. The geolocation button needs JavaScript.